Location: DeLan Observatory
(46.9670°N, 70.5500°W)
Time: 19:32:21
(UTC-05:00)

Envisat - Visible Passes

Search period start: 17 November 2019 00:00
Search period end: 27 November 2019 00:00
Orbit: 764 x 766 km, 98.1° (Epoch: 17 November)

Date Brightness Start Highest point End Pass type
(mag) Time Alt. Az. Time Alt. Az. Time Alt. Az.
17 Nov 5.7 05:36:32 10° NE 05:40:30 23° E 05:44:27 10° SE visible
17 Nov 3.4 16:53:42 10° SE 16:58:25 40° ENE 17:03:08 10° N visible
17 Nov 4.9 18:33:07 10° SSW 18:37:31 29° W 18:41:58 10° NW visible
18 Nov 6.5 05:02:26 10° ENE 05:03:14 10° E 05:04:03 10° E visible
18 Nov 3.5 17:55:32 10° S 18:00:33 61° W 18:05:37 10° NNW visible
19 Nov 4.8 06:01:29 10° NNE 06:06:12 37° E 06:10:54 10° SSE visible
19 Nov 2.9 17:18:46 10° SSE 17:23:48 66° ENE 17:28:50 10° N visible
19 Nov 5.7 18:59:54 10° SW 19:03:17 18° W 19:06:42 10° NW visible
20 Nov 5.9 05:25:38 10° NE 05:29:06 18° E 05:32:33 10° SE visible
20 Nov 3.7 16:42:43 10° SE 16:47:13 33° ENE 16:51:43 10° N visible
20 Nov 4.5 18:21:30 10° SSW 18:26:10 36° W 18:30:52 10° NNW visible
21 Nov 3.1 17:44:11 10° S 17:49:16 76° WSW 17:54:23 10° NNW visible
21 Nov 6.3 19:28:56 10° W 19:29:09 10° W 19:29:21 10° W visible
22 Nov 5.2 05:50:23 10° NNE 05:54:52 30° E 05:59:18 10° SSE visible
22 Nov 3.1 17:07:38 10° SE 17:12:33 53° ENE 17:17:29 10° N visible
22 Nov 5.4 18:47:59 10° SW 18:51:53 22° W 18:55:49 10° NW visible
23 Nov 6.1 05:14:55 10° NE 05:17:41 15° E 05:20:27 10° ESE visible
23 Nov 3.9 16:31:49 10° ESE 16:36:02 27° ENE 16:40:15 10° N visible
23 Nov 4.1 18:10:00 10° S 18:14:50 45° W 18:19:43 10° NNW visible
24 Nov 4.1 06:15:33 10° NNE 06:20:30 50° E 06:25:26 10° S visible
24 Nov 2.9 17:32:54 10° SSE 17:37:59 87° ENE 17:43:06 10° NNW visible
24 Nov 6.0 19:15:24 10° WSW 19:17:42 13° W 19:20:01 10° WNW visible
25 Nov 5.5 05:39:21 10° NE 05:43:29 24° E 05:47:35 10° SSE visible
25 Nov 3.3 16:56:33 10° SE 17:01:20 43° ENE 17:06:07 10° N visible
25 Nov 5.0 18:36:14 10° SSW 18:40:30 27° W 18:44:49 10° NW visible
26 Nov 6.3 05:04:36 10° ENE 05:06:15 11° E 05:07:55 10° ESE visible
26 Nov 3.7 17:58:32 10° S 18:03:31 56° W 18:08:32 10° NNW visible
